Location: *
(49.4547°N, 7.9131°E)
Time: 10:49:41
(UTC+00:00)

SJ-6B - Pass Details

Date: 22 September 2019
Orbit: 509 x 583 km, 97.6° (Epoch: 18 October)

Event Time Altitude Azimuth Distance (km) Brightness Sun altitude
Exits shadow 18:10:43 - 131° (SE) 2,207 5.4 -7.9°
Reaches altitude 10° 18:11:35 10° 125° (SE) 1,890 5.0 -8.0°
Maximum altitude 18:15:05 28° 66° (ENE) 1,088 3.9 -8.6°
Drops below altitude 10° 18:18:35 10° 7° (N) 1,875 5.6 -9.1°
Sets 18:20:55 0° 356° (N) 2,765 6.6 -9.5°
